This is the latest recevied weather packets stored in our database for station/object 2E0RGX-13. If no packets are shown the sender has not sent any weather packets the latest 10 day(s).
| Time | Temp. | Humidity | Pressure | Rain* | Wind** | Luminosity | Snow |
|---|---|---|---|---|---|---|---|
| 1777641549 | 24.44° C | 37% | 1015.8 hPa | 0 mm | - | 4 W/m² | - |
| 1777641245 | 24.44° C | 37% | 1015.8 hPa | 0 mm | - | 4 W/m² | - |
| 1777640941 | 23.89° C | 37% | 1015.9 hPa | 0 mm | - | 4 W/m² | - |
| 1777640637 | 23.33° C | 38% | 1016.1 hPa | 0 mm | - | 4 W/m² | - |
| 1777640333 | 23.89° C | 36% | 1015.8 hPa | 0 mm | - | 4 W/m² | - |
| 1777640029 | 23.33° C | 37% | 1016.1 hPa | 0 mm | - | 4 W/m² | - |
| 1777639726 | 23.89° C | 36% | 1016 hPa | 0 mm | - | 4 W/m² | - |
| 1777639422 | 23.33° C | 36% | 1016 hPa | 0 mm | - | 4 W/m² | - |
| 1777639117 | 23.33° C | 35% | 1015.9 hPa | 0 mm | - | 4 W/m² | - |
| 1777638814 | 23.33° C | 35% | 1016.1 hPa | 0 mm | - | 4 W/m² | - |
| 1777638509 | 23.33° C | 36% | 1016 hPa | 0 mm | - | 4 W/m² | - |
| 1777638205 | 23.33° C | 35% | 1016.1 hPa | 0 mm | - | 4 W/m² | - |
| 1777637901 | 23.33° C | 35% | 1016.1 hPa | 0 mm | - | 4 W/m² | - |
| 1777637597 | 22.78° C | 36% | 1016.2 hPa | 0 mm | - | 4 W/m² | - |
| 1777637293 | 22.78° C | 36% | 1016.4 hPa | 0 mm | - | 4 W/m² | - |
| 1777636989 | 23.33° C | 35% | 1016.3 hPa | 0 mm | - | 4 W/m² | - |
| 1777636685 | 23.33° C | 35% | 1016.3 hPa | 0 mm | - | 4 W/m² | - |
| 1777636381 | 22.78° C | 35% | 1016.2 hPa | 0 mm | - | 4 W/m² | - |
| 1777636078 | 22.78° C | 35% | 1016.4 hPa | 0 mm | - | 4 W/m² | - |
| 1777635774 | 23.33° C | 34% | 1016.6 hPa | 0 mm | - | 4 W/m² | - |
| 1777635470 | 22.78° C | 36% | 1016.6 hPa | 0 mm | - | 4 W/m² | - |
| 1777635166 | 22.22° C | 35% | 1016.6 hPa | 0 mm | - | 4 W/m² | - |
| 1777634862 | 22.22° C | 36% | 1016.6 hPa | 0 mm | - | 4 W/m² | - |
| 1777634558 | 22.22° C | 35% | 1016.7 hPa | 0 mm | - | 4 W/m² | - |
| 1777634254 | 21.67° C | 35% | 1016.8 hPa | 0 mm | - | 4 W/m² | - |
* Rain latest hour (hover to see other rain measurements)
** Current wind speed in m/s (hover to see current wind gust speed)